Date String (YYYY-MM-DD hh:mm:ss) UTC,Instrument flags,absolute air pressure of the measurement (hPa),sample flow rate (lpm),inlet stack bypass flow (lpm),air temperature of the measurement (°C),ambient temperature measured by the external sensor (°C),aerosol sample conditioner tube jacket temperature (°C),OPC LED temperature (°C),internal box temperature (°C),relative humidity of the measurement (%),span deviation,mass concentration of particles derived from Lorenz-Mie calculation of OPC scattering (μg/m³),mass concentration of particles derived from Lorenz-Mie calculation of OPC scattering (μg/m³),mass concentration of particles derived from Lorenz-Mie calculation of OPC scattering (μg/m³)
DateTimeUTC,F1_M11,P_M11,Q1_M11,Q2_M11,T1_M11,T2_M11,T3_M11,T4_M11,T5_M11,U1_M11,ZSPAN_M11,X2_M11,X0_M11,X1_M11
2023-09-24 12:00:00,SystemResetWarning,0831.8,5.01,000.00,028.1,026.5,000.0,036.6,029.5,10.5,0000.0,0003.51,0009.31,0003.11
2023-09-24 12:01:00,SystemResetWarning,0832.3,5.00,000.00,028.1,026.5,000.0,036.6,029.6,10.6,0000.0,0003.53,0008.85,0003.11
2023-09-24 12:02:00,SystemResetWarning,0832.0,5.00,000.00,028.1,026.5,000.0,036.6,029.5,10.7,0000.0,0003.49,0008.67,0003.09
2023-09-24 12:03:00,SystemResetWarning,0831.9,4.99,000.00,028.1,026.5,000.0,036.6,029.5,10.7,0000.0,0003.51,0008.57,0003.10
2023-09-24 12:04:00,SystemResetWarning,0831.9,4.99,000.00,028.1,026.5,000.0,036.6,029.5,10.8,0000.0,0003.54,0008.20,0003.10
2023-09-24 12:05:00,SystemResetWarning,0832.0,5.00,000.00,028.1,026.5,000.0,036.6,029.5,10.8,0000.0,0003.52,0007.96,0003.10
2023-09-24 12:06:00,SystemResetWarning,0832.2,5.00,000.00,028.1,026.5,000.0,036.6,029.5,10.8,0000.0,0003.54,0007.99,0003.09
2023-09-24 12:07:00,SystemResetWarning,0832.1,5.00,000.00,028.1,026.5,000.0,036.6,029.5,10.7,0000.0,0003.53,0007.39,0003.09
2023-09-24 12:08:00,SystemResetWarning,0832.1,5.02,000.00,028.1,026.5,000.0,036.6,029.5,10.6,0000.0,0003.51,0007.61,0003.09
2023-09-24 12:09:00,SystemResetWarning,0832.0,5.01,000.00,028.1,026.5,000.0,036.6,029.5,10.7,0000.0,0003.51,0007.46,0003.10
2023-09-24 12:10:00,SystemResetWarning,0832.0,4.99,000.00,028.1,026.5,000.0,036.6,029.5,10.7,0000.0,0003.53,0007.48,0003.08
2023-09-24 12:11:00,SystemResetWarning,0831.8,4.99,000.00,028.1,026.4,000.0,036.6,029.5,10.7,0000.0,0003.56,0007.65,0003.07
2023-09-24 12:12:00,SystemResetWarning,0831.8,4.99,000.00,028.1,026.4,000.0,036.6,029.5,10.7,0000.0,0003.54,0008.08,0003.06
2023-09-24 12:13:00,SystemResetWarning,0831.9,5.01,000.00,028.0,026.4,000.0,036.5,029.5,10.7,0000.0,0003.53,0008.47,0003.07
2023-09-24 12:14:00,SystemResetWarning,0831.9,5.01,000.00,028.0,026.4,000.0,036.5,029.4,10.8,0000.0,0003.49,0008.48,0003.06
2023-09-24 12:15:00,SystemResetWarning,0831.8,5.00,000.00,028.0,026.4,000.0,036.5,029.5,10.8,0000.0,0003.49,0008.34,0003.06
2023-09-24 12:16:00,SystemResetWarning,0831.8,5.00,000.00,028.0,026.4,000.0,036.5,029.5,10.7,0000.0,0003.47,0008.00,0003.05
2023-09-24 12:17:00,SystemResetWarning,0831.8,5.00,000.00,028.0,026.4,000.0,036.5,029.5,10.7,0000.0,0003.46,0007.96,0003.05
2023-09-24 12:18:00,SystemResetWarning,0831.8,5.00,000.00,028.0,026.4,000.0,036.5,029.5,10.8,0000.0,0003.45,0007.90,0003.04
2023-09-24 12:19:00,SystemResetWarning,0831.9,4.99,000.00,028.0,026.4,000.0,036.5,029.4,10.7,0000.0,0003.46,0007.71,0003.04
2023-09-24 12:20:00,SystemResetWarning,0831.9,4.99,000.00,028.0,026.3,000.0,036.5,029.4,10.7,0000.0,0003.44,0007.53,0003.04
2023-09-24 12:21:00,SystemResetWarning,0832.0,5.00,000.00,028.0,026.4,000.0,036.5,029.4,10.6,0000.0,0003.46,0008.49,0003.05
2023-09-24 12:22:00,SystemResetWarning,0832.0,5.00,000.00,028.0,026.4,000.0,036.5,029.4,10.6,0000.0,0003.47,0008.57,0003.06
2023-09-24 12:23:00,SystemResetWarning,0832.0,5.00,000.00,028.0,026.4,000.0,036.5,029.4,10.5,0000.0,0003.48,0008.03,0003.07
2023-09-24 12:24:00,SystemResetWarning,0832.0,5.01,000.00,027.9,026.3,000.0,036.5,029.4,10.4,0000.0,0003.53,0008.05,0003.09
2023-09-24 12:25:00,SystemResetWarning,0832.0,5.01,000.00,027.9,026.3,000.0,036.4,029.4,10.4,0000.0,0003.57,0008.11,0003.09
2023-09-24 12:26:00,SystemResetWarning,0832.0,4.99,000.00,027.9,026.3,000.0,036.4,029.4,10.4,0000.0,0003.56,0008.15,0003.09
2023-09-24 12:27:00,SystemResetWarning,0832.0,4.99,000.00,027.9,026.3,000.0,036.4,029.4,10.4,0000.0,0003.56,0008.18,0003.09
2023-09-24 12:28:00,SystemResetWarning,0832.0,5.00,000.00,027.9,026.3,000.0,036.4,029.4,10.4,0000.0,0003.56,0008.23,0003.09
2023-09-24 12:29:00,SystemResetWarning,0832.0,4.99,000.00,027.9,026.3,000.0,036.4,029.4,10.3,0000.0,0003.58,0008.38,0003.09
2023-09-24 12:30:00,SystemResetWarning,0832.0,5.00,000.00,027.9,026.3,000.0,036.4,029.4,10.3,0000.0,0003.60,0008.46,0003.09
2023-09-24 12:31:00,SystemResetWarning,0832.0,5.02,000.00,027.9,026.3,000.0,036.4,029.4,10.3,0000.0,0003.62,0008.49,0003.09
2023-09-24 12:32:00,SystemResetWarning,0832.0,5.00,000.00,027.9,026.3,000.0,036.4,029.4,10.4,0000.0,0003.58,0007.49,0003.08
2023-09-24 12:33:00,SystemResetWarning,0831.9,5.00,000.00,027.9,026.3,000.0,036.4,029.3,10.4,0000.0,0003.54,0007.28,0003.06
2023-09-24 12:34:00,SystemResetWarning,0832.0,5.00,000.00,027.9,026.3,000.0,036.4,029.3,10.6,0000.0,0003.55,0007.61,0003.07
2023-09-24 12:35:00,SystemResetWarning,0832.0,4.98,000.00,027.9,026.3,000.0,036.4,029.4,10.7,0000.0,0003.51,0007.75,0003.07
2023-09-24 12:36:00,SystemResetWarning,0832.1,4.99,000.00,027.9,026.3,000.0,036.4,029.4,10.6,0000.0,0003.49,0007.40,0003.07
2023-09-24 12:37:00,SystemResetWarning,0832.0,5.01,000.00,027.9,026.3,000.0,036.4,029.3,10.5,0000.1,0003.52,0008.09,0003.08
2023-09-24 12:38:00,SystemResetWarning,0832.0,5.00,000.00,027.9,026.3,000.0,036.4,029.3,10.5,0001.1,0003.54,0008.24,0003.08
2023-09-24 12:39:00,SystemResetWarning,0832.0,5.00,000.00,027.9,026.3,000.0,036.4,029.3,10.6,0001.3,0003.56,0008.25,0003.09
2023-09-24 12:40:00,SystemResetWarning,0832.0,5.00,000.00,027.9,026.3,000.0,036.3,029.4,10.8,0000.0,0003.60,0008.23,0003.10
2023-09-24 12:41:00,SystemResetWarning,0832.0,5.00,000.00,027.9,026.3,000.0,036.3,029.4,10.7,0000.5,0003.61,0008.26,0003.10
2023-09-24 12:42:00,SystemResetWarning,0832.0,4.99,000.00,027.9,026.3,000.0,036.3,029.4,10.7,0000.0,0003.62,0008.53,0003.10
2023-09-24 12:43:00,SystemResetWarning,0832.0,4.99,000.00,027.9,026.3,000.0,036.3,029.4,10.8,0000.0,0003.66,0009.35,0003.11
2023-09-24 12:44:00,SystemResetWarning,0832.0,5.00,000.00,027.9,026.4,000.0,036.3,029.4,10.8,0000.0,0003.69,0009.72,0003.11
2023-09-24 12:45:00,SystemResetWarning,0832.0,5.00,000.00,027.9,026.4,000.0,036.3,029.5,10.8,0000.0,0003.68,0009.75,0003.12
2023-09-24 12:46:00,SystemResetWarning,0832.0,5.00,000.00,027.9,026.4,000.0,036.3,029.5,10.8,0000.0,0003.69,0009.61,0003.12
2023-09-24 12:47:00,SystemResetWarning,0832.1,5.00,000.00,027.9,026.4,000.0,036.3,029.5,10.9,0000.0,0003.69,0009.87,0003.11
2023-09-24 12:48:00,SystemResetWarning,0832.1,5.01,000.00,027.9,026.4,000.0,036.3,029.5,11.2,0000.0,0003.66,0009.25,0003.09
2023-09-24 12:49:00,SystemResetWarning,0832.1,4.99,000.00,027.9,026.4,000.0,036.3,029.5,11.4,0000.0,0003.65,0009.06,0003.08
2023-09-24 12:50:00,SystemResetWarning,0832.1,4.99,000.00,027.9,026.4,000.0,036.3,029.5,11.5,0000.0,0003.65,0009.10,0003.07
2023-09-24 12:51:00,SystemResetWarning,0832.1,5.01,000.00,027.9,026.4,000.0,036.3,029.4,11.5,0000.0,0003.61,0008.97,0003.06
2023-09-24 12:52:00,SystemResetWarning,0832.1,5.01,000.00,027.9,026.4,000.0,036.3,029.4,11.6,0000.0,0003.60,0008.92,0003.03
2023-09-24 12:53:00,SystemResetWarning,0832.1,4.99,000.00,027.9,026.4,000.0,036.3,029.5,11.7,0000.0,0003.60,0008.87,0003.02
2023-09-24 12:54:00,SystemResetWarning,0832.1,4.99,000.00,027.9,026.4,000.0,036.3,029.5,11.8,0000.0,0003.57,0008.18,0003.00
2023-09-24 12:55:00,SystemResetWarning,0832.2,5.00,000.00,027.9,026.4,000.0,036.3,029.5,11.8,0000.0,0003.55,0007.70,0002.98
2023-09-24 12:56:00,SystemResetWarning,0832.2,5.00,000.00,027.9,026.4,000.0,036.3,029.5,11.9,0000.0,0003.52,0007.39,0002.96
2023-09-24 12:57:00,SystemResetWarning,0832.2,5.00,000.00,027.9,026.4,000.0,036.3,029.5,11.9,0000.0,0003.54,0007.22,0002.96
2023-09-24 12:58:00,SystemResetWarning,0832.2,5.00,000.00,027.9,026.4,000.0,036.3,029.5,11.9,0000.0,0003.55,0006.69,0002.95
2023-09-24 12:59:00,SystemResetWarning,0832.2,5.00,000.00,027.9,026.4,000.0,036.3,029.4,12.0,0000.0,0003.59,0007.09,0002.97
